Theta_e
329 332 333 333 335 335 336 339 341 343 341 341 344 346 346 344 342 343 344 346 347 348 347 349 352 352 351 351 352 352 354 352 352
327 331 334 334 335 339 337 339 342 342 340 340 344 345 346 343 341 339 342 346 347 349 350 350 351 352 353 353 353 353 353 351 352
328 331 334 336 337 340 340 339 341 345 342 341 344 346 346 344 342 343 345 345 345 349 349 350 350 351 352 353 353 353 352 352 352
325 330 332 334 336 340 339 341 343 346 343 340 343 345 346 345 346 347 345 342 342 346 350 349 349 348 350 351 352 352 352 352 351
326 328 330 334 335 339 338 338 337 336 336 337 338 340 341 341 343 345 348 348 346 345 346 348 349 349 348 351 351 353 351 351 352
326 326 328 332 334 335 336 335 335 334 337 338 339 340 340 339 341 342 344 348 350 351 349 347 345 344 345 346 348 349 352 351 351
325 325 326 327 330 333 334 334 335 336 338 337 338 338 338 336 339 341 342 346 349 351 350 348 347 344 342 344 345 346 348 351 351
321 321 323 324 325 330 331 331 333 334 336 333 335 337 337 336 338 340 340 341 342 344 348 349 349 347 347 345 343 343 345 350 352
319 319 320 321 323 326 329 330 331 331 330 329 334 331 330 331 333 336 337 338 338 340 342 343 344 344 346 349 350 331 335 343 351
320 318 315 316 321 323 324 325 327 326 326 326 323 322 322 324 330 330 331 332 335 337 337 337 339 339 340 342 342 327 328 335 348
316 314 315 317 319 320 319 319 319 319 320 319 316 316 316 318 320 322 326 330 330 329 331 331 334 336 338 339 340 327 325 330 345
312 311 312 315 317 316 315 314 315 316 317 316 314 313 314 316 317 317 318 320 324 326 330 331 332 335 336 337 339 326 324 331 342
310 309 311 313 314 313 313 314 313 311 310 311 310 311 312 313 315 314 315 316 318 321 324 327 330 329 330 328 338 319 320 327 339
310 309 310 311 310 310 309 309 308 306 307 306 308 310 311 311 311 312 312 314 314 314 317 318 320 324 326 327 327 326 315 317 333
305 306 307 308 307 306 306 307 306 304 304 306 308 309 309 308 309 310 309 310 310 310 311 312 313 314 314 317 321 318 317 313 315
304 305 305 307 304 303 304 305 305 303 304 305 305 305 305 306 307 307 308 307 307 307 307 307 309 310 310 311 314 316 312 311 310
305 305 304 303 303 302 301 303 303 303 304 304 303 302 303 304 304 304 305 305 306 305 305 305 306 307 307 308 310 311 309 308 310
306 305 304 303 302 301 301 301 300 302 302 302 300 300 301 301 302 302 302 303 304 304 305 304 305 305 305 306 307 307 300 300 304
305 304 304 303 302 302 301 300 300 301 301 300 299 299 299 300 300 300 300 300 300 301 300 299 297 297 301 306 302 298 297 295 294
306 305 304 303 302 302 300 300 300 300 301 300 299 298 299 299 299 299 299 299 298 297 300 300 299 297 298 297 296 297 296 293 294
Wind_Speed
13 8 2 2 2 4 6 7 6 6 9 7 7 6 6 4 6 3 3 4 3 4 3 3 4 4 4 3 3 3 3 1 0
15 13 6 4 3 1 4 7 8 6 5 6 7 6 5 5 4 5 4 4 3 3 3 3 3 4 4 4 4 4 3 2 2
12 11 9 3 3 3 0 4 6 7 7 7 5 5 5 5 4 4 3 3 5 5 4 3 4 4 4 5 4 4 4 2 1
9 9 9 8 5 4 2 2 4 6 8 9 7 5 4 5 4 4 4 4 4 4 3 4 4 4 4 5 5 5 4 4 3
4 5 4 4 1 7 8 4 4 4 5 7 5 5 5 3 2 1 4 5 5 5 5 4 5 4 3 4 5 5 5 5 4
7 6 5 4 4 3 7 8 6 4 8 12 6 5 6 5 5 3 3 5 5 5 4 3 3 4 5 5 5 5 5 5 5
8 6 5 3 4 6 6 10 8 6 5 8 7 5 7 8 5 5 4 3 3 3 3 3 4 3 4 4 4 5 4 4 5
8 6 5 3 1 4 10 9 9 6 7 6 6 3 7 6 6 6 5 3 3 4 4 2 3 3 4 4 4 5 5 6 6
10 8 7 6 5 5 7 9 9 8 8 6 5 7 10 7 6 6 7 5 5 7 7 6 6 6 4 3 2 9 4 5 5
11 11 10 9 8 8 10 11 8 9 9 8 12 10 9 8 5 6 6 6 5 6 6 5 6 6 7 7 5 7 9 6 4
11 10 11 11 9 10 11 12 13 12 10 10 10 9 8 6 6 7 6 5 4 5 3 6 4 5 4 4 3 4 6 7 3
7 7 8 9 11 12 12 12 11 12 10 9 10 8 7 6 5 6 5 6 5 5 3 3 3 3 5 4 4 4 5 4 3
11 10 10 8 12 11 11 8 10 11 8 8 8 6 5 5 5 6 5 4 4 2 2 4 4 4 4 5 6 10 9 5 3
7 6 10 10 8 11 8 7 10 10 8 8 6 6 6 6 5 6 5 5 4 5 6 6 6 7 5 4 6 6 10 11 5
10 10 9 8 10 8 6 6 10 9 9 4 5 7 7 7 6 6 6 8 7 8 8 8 7 6 6 6 6 8 8 10 6
8 8 7 6 10 8 6 6 8 10 3 5 6 7 7 7 7 7 7 8 7 6 7 6 6 6 6 6 7 7 12 11 14
8 7 8 7 9 8 6 5 7 7 5 5 7 8 7 6 7 7 8 6 6 7 6 6 7 7 7 6 7 9 9 8 7
8 7 7 7 8 8 7 6 6 5 5 6 7 6 6 6 6 7 6 7 6 6 4 4 4 5 5 6 7 8 8 6 7
12 11 7 7 6 8 7 6 5 5 5 6 6 6 5 5 5 4 5 5 5 7 8 8 7 5 1 4 3 8 12 12 11
11 9 10 10 10 8 8 7 6 4 5 6 6 6 5 5 5 5 5 5 6 6 6 7 9 9 10 7 7 11 11 12 12
Wind_Direction
165 177 197 160 107 193 182 167 172 194 177 169 172 175 187 185 182 173 191 187 189 179 184 196 172 181 179 180 199 197 168 142 107
166 179 206 174 201 359 192 170 180 175 168 163 180 181 167 165 187 189 207 202 193 196 184 190 195 195 189 186 186 194 178 184 148
171 177 194 187 189 192 347 194 169 163 155 173 158 160 169 169 177 196 191 187 219 201 195 187 187 200 201 196 192 185 177 189 203
162 168 192 215 209 165 98 22 145 152 155 152 144 153 164 163 168 185 190 177 214 251 207 198 211 198 217 207 200 182 187 188 191
129 125 143 144 160 206 171 132 126 126 121 108 102 116 87 46 61 221 208 188 190 211 230 239 211 190 221 223 200 194 201 202 193
143 131 134 151 168 145 157 138 103 112 125 108 108 99 90 63 30 14 310 265 211 196 203 200 233 218 202 201 210 210 221 217 212
130 127 132 144 160 138 141 128 130 141 134 112 104 67 75 62 29 5 338 329 249 206 185 178 193 208 248 232 208 217 226 229 242
121 119 128 126 104 130 128 115 97 109 122 112 96 117 77 60 41 21 19 25 79 85 84 115 199 207 223 231 231 236 221 218 227
125 119 114 116 109 79 94 105 115 94 135 96 82 71 53 48 44 30 23 19 39 79 75 63 77 65 42 348 326 352 298 257 249
132 119 111 92 81 92 101 99 97 86 89 84 67 64 56 49 35 56 49 12 22 70 76 80 66 63 63 59 65 26 11 342 250
124 123 116 104 97 85 76 83 86 90 81 82 77 69 62 48 44 42 39 48 29 46 49 73 69 67 65 76 61 29 20 351 21
105 107 100 106 106 101 95 91 88 82 78 75 78 69 69 55 53 57 47 38 17 37 6 59 49 66 72 34 40 355 12 5 6
121 121 111 106 111 105 98 100 105 99 93 87 78 73 61 60 59 52 41 32 36 360 352 30 34 47 36 79 48 30 41 28 6
118 106 113 115 100 105 102 107 104 89 89 76 75 74 67 55 50 65 37 41 33 26 33 47 32 32 33 58 53 53 27 7 19
120 119 108 106 103 96 95 97 98 92 77 65 77 78 69 57 47 56 56 60 43 38 38 39 36 30 24 17 20 29 13 10 358
119 124 113 105 109 99 68 78 98 97 85 83 77 68 56 53 59 54 52 58 54 57 45 41 33 32 30 12 6 20 14 7 356
125 134 129 130 119 109 96 83 88 102 108 92 83 76 59 49 53 46 40 47 47 52 43 36 35 28 22 11 15 15 2 0 351
160 148 144 145 136 133 133 128 113 114 110 103 91 84 75 63 56 47 43 41 38 47 46 43 41 30 15 16 20 1 339 333 347
155 162 152 141 143 141 145 137 131 127 117 111 108 94 87 79 74 64 60 54 38 13 26 26 44 45 8 19 359 335 346 351 350
161 163 161 165 169 159 152 146 140 139 126 117 111 110 102 85 69 61 53 47 47 36 2 11 12 2 9 21 340 349 349 345 338